• In Latvia
  • List of Countries
  • For 7 days
  • Water Temperature
  • Satellite Maps
  • Weather Map
  • Weather Widgets
  • user-avatar
    Login

    Hourly Weather Solden

    Today, 25 March, Saturday

    Time Temperature Precipitation Wind Pressure Humidity
    00:00 -3°C° 0 mm 1 mps 583 mmHg 88%
    01:00 -4°C° 0 mm 1 mps 582 mmHg 84%
    02:00 -4°C° 0 mm 1 mps 582 mmHg 84%
    03:00 -4°C° 0 mm 1 mps 582 mmHg 85%
    04:00 -4°C° 0 mm 1 mps 582 mmHg 86%
    05:00 -4°C° 0 mm 1 mps 582 mmHg 86%
    06:00 -3°C° 0 mm 1 mps 582 mmHg 87%
    07:00 -3°C° 0 mm 1 mps 582 mmHg 87%
    08:00 -1°C° 0 mm 1 mps 583 mmHg 84%
    09:00 +2°C° 0 mm 1 mps 584 mmHg 81%
    10:00 +4°C° 0 mm 1 mps 585 mmHg 79%
    11:00 +5°C° 0 mm 1 mps 585 mmHg 77%
    12:00 +5°C° 0 mm 1 mps 585 mmHg 76%
    13:00 +5°C° 0 mm 2 mps 585 mmHg 74%
    14:00 +4°C° 0 mm 2 mps 585 mmHg 75%
    15:00 +5°C° 0 mm 1 mps 584 mmHg 76%
    16:00 +5°C° 0 mm 1 mps 584 mmHg 77%
    17:00 +3°C° 0 mm 1 mps 582 mmHg 82%
    18:00 +1°C° 0 mm 1 mps 581 mmHg 86%
    19:00 -1°C° 0 mm 1 mps 580 mmHg 91%
    20:00 -1°C° 0 mm 1 mps 580 mmHg 92%
    21:00 -2°C° 0 mm 1 mps 580 mmHg 92%
    22:00 -2°C° 0 mm 1 mps 580 mmHg 93%
    23:00 -3°C° 0 mm 1 mps 580 mmHg 94%

    Tomorrow, 26 March, Sunday

    Time Temperature Precipitation Wind Pressure Humidity
    00:00 -3°C° 0 mm 1 mps 580 mmHg 94%
    01:00 -3°C° 0 mm 1 mps 579 mmHg 95%
    02:00 -3°C° 0 mm 1 mps 579 mmHg 95%
    03:00 -4°C° 0 mm 1 mps 579 mmHg 95%
    04:00 -4°C° 0 mm 1 mps 578 mmHg 94%
    05:00 -4°C° 0 mm 1 mps 578 mmHg 93%
    06:00 -4°C° 0 mm 1 mps 578 mmHg 91%
    07:00 -5°C° 0 mm 0 mps 578 mmHg 90%
    08:00 -1°C° 0 mm 1 mps 580 mmHg 84%
    09:00 +1°C° 0 mm 1 mps 581 mmHg 79%
    10:00 +4°C° 0 mm 1 mps 582 mmHg 73%
    11:00 +4°C° 0.1 mm 1 mps 583 mmHg 72%
    12:00 +4°C° 0.1 mm 1 mps 583 mmHg 71%
    13:00 +5°C° 0.1 mm 1 mps 583 mmHg 71%
    14:00 +3°C° 0.3 mm 2 mps 583 mmHg 73%
    15:00 +3°C° 0.3 mm 2 mps 582 mmHg 75%
    16:00 +2°C° 0.3 mm 2 mps 582 mmHg 78%
    17:00 +1°C° 0.5 mm 2 mps 582 mmHg 82%
    18:00 +1°C° 0.5 mm 1 mps 582 mmHg 87%
    19:00 -1°C° 0.5 mm 1 mps 581 mmHg 92%
    20:00 -2°C° 0.3 mm 1 mps 581 mmHg 93%
    21:00 -3°C° 0.3 mm 1 mps 582 mmHg 94%
    22:00 -4°C° 0.3 mm 1 mps 582 mmHg 95%
    23:00 -4°C° 0.1 mm 1 mps 582 mmHg 95%

    Day after tomorrow, 27 March, Monday

    Time Temperature Precipitation Wind Pressure Humidity
    00:00 -4°C° 0.1 mm 1 mps 582 mmHg 95%
    01:00 -4°C° 0.1 mm 1 mps 582 mmHg 94%
    02:00 -4°C° 0 mm 1 mps 582 mmHg 94%
    03:00 -4°C° 0 mm 1 mps 582 mmHg 94%
    04:00 -4°C° 0 mm 1 mps 582 mmHg 94%
    05:00 -4°C° 0 mm 1 mps 582 mmHg 93%
    06:00 -4°C° 0 mm 1 mps 583 mmHg 91%
    07:00 -4°C° 0 mm 1 mps 583 mmHg 89%
    08:00 -2°C° 0 mm 1 mps 583 mmHg 82%
    09:00 0°C° 0 mm 1 mps 584 mmHg 76%
    10:00 +2°C° 0 mm 1 mps 585 mmHg 69%
    11:00 +3°C° 0 mm 1 mps 585 mmHg 67%
    12:00 +4°C° 0 mm 1 mps 586 mmHg 64%
    13:00 +5°C° 0 mm 1 mps 586 mmHg 62%
    14:00 +5°C° 0 mm 1 mps 586 mmHg 64%
    15:00 +4°C° 0 mm 1 mps 586 mmHg 67%
    16:00 +4°C° 0 mm 1 mps 585 mmHg 69%
    17:00 +1°C° 0 mm 1 mps 584 mmHg 77%
    18:00 -1°C° 0 mm 1 mps 583 mmHg 85%
    19:00 -4°C° 0 mm 1 mps 581 mmHg 94%
    20:00 -4°C° 0 mm 1 mps 582 mmHg 94%
    21:00 -4°C° 0 mm 1 mps 582 mmHg 95%
    22:00 -4°C° 0 mm 1 mps 583 mmHg 96%
    23:00 -4°C° 0 mm 1 mps 583 mmHg 96%

    28 March, Tuesday

    Time Temperature Precipitation Wind Pressure Humidity
    00:00 -4°C° 0 mm 1 mps 583 mmHg 96%
    01:00 -4°C° 0 mm 1 mps 583 mmHg 95%
    02:00 -5°C° 0 mm 0 mps 583 mmHg 96%
    03:00 -6°C° 0 mm 0 mps 582 mmHg 96%
    04:00 -6°C° 0 mm 0 mps 582 mmHg 96%
    05:00 -5°C° 0 mm 0 mps 583 mmHg 94%
    06:00 -5°C° 0 mm 0 mps 583 mmHg 92%
    07:00 -4°C° 0 mm 0 mps 583 mmHg 91%
    08:00 -2°C° 0 mm 0 mps 585 mmHg 82%
    09:00 +1°C° 0 mm 0 mps 586 mmHg 74%
    10:00 +4°C° 0 mm 0 mps 587 mmHg 66%
    11:00 +4°C° 0 mm 0 mps 588 mmHg 63%
    12:00 +6°C° 0 mm 1 mps 588 mmHg 60%
    13:00 +7°C° 0 mm 1 mps 588 mmHg 57%
    14:00 +7°C° 0 mm 1 mps 588 mmHg 59%
    15:00 +6°C° 0 mm 1 mps 587 mmHg 62%
    16:00 +6°C° 0 mm 1 mps 587 mmHg 64%
    17:00 +3°C° 0 mm 1 mps 586 mmHg 72%
    18:00 +1°C° 0 mm 1 mps 585 mmHg 81%
    19:00 -2°C° 0 mm 1 mps 583 mmHg 89%
    20:00 -3°C° 0 mm 0 mps 583 mmHg 91%
    21:00 -4°C° 0 mm 0 mps 583 mmHg 92%
    22:00 -4°C° 0 mm 0 mps 583 mmHg 94%
    23:00 -4°C° 0 mm 0 mps 583 mmHg 94%

    29 March, Wednesday

    Time Temperature Precipitation Wind Pressure Humidity
    00:00 -5°C° 0 mm 0 mps 583 mmHg 94%
    01:00 -5°C° 0 mm 0 mps 583 mmHg 94%
    02:00 -4°C° 0 mm 1 mps 583 mmHg 92%
    03:00 -4°C° 0 mm 1 mps 583 mmHg 91%
    04:00 -4°C° 0 mm 1 mps 583 mmHg 90%
    05:00 -3°C° 0 mm 1 mps 583 mmHg 88%
    06:00 -3°C° 0 mm 1 mps 584 mmHg 86%
    07:00 -2°C° 0 mm 1 mps 584 mmHg 84%
    08:00 +1°C° 0 mm 1 mps 585 mmHg 76%
    09:00 +3°C° 0 mm 1 mps 587 mmHg 68%
    10:00 +6°C° 0 mm 1 mps 588 mmHg 60%
    11:00 +6°C° 0 mm 1 mps 588 mmHg 57%
    12:00 +7°C° 0 mm 1 mps 588 mmHg 54%
    13:00 +8°C° 0 mm 1 mps 588 mmHg 51%
    14:00 +8°C° 0 mm 1 mps 588 mmHg 53%
    15:00 +7°C° 0 mm 1 mps 587 mmHg 55%
    16:00 +7°C° 0 mm 1 mps 587 mmHg 57%
    17:00 +4°C° 0 mm 1 mps 585 mmHg 66%
    18:00 +1°C° 0 mm 1 mps 584 mmHg 75%
    19:00 -2°C° 0 mm 1 mps 583 mmHg 84%
    20:00 -3°C° 0 mm 0 mps 583 mmHg 86%
    21:00 -3°C° 0 mm 0 mps 583 mmHg 87%
    22:00 -4°C° 0 mm 0 mps 583 mmHg 89%
    23:00 -4°C° 0 mm 0 mps 583 mmHg 86%

    30 March, Thursday

    Time Temperature Precipitation Wind Pressure Humidity
    00:00 -3°C° 0 mm 1 mps 583 mmHg 84%
    01:00 -3°C° 0 mm 1 mps 583 mmHg 82%
    02:00 -3°C° 0 mm 1 mps 583 mmHg 81%
    03:00 -3°C° 0 mm 1 mps 582 mmHg 80%
    04:00 -3°C° 0 mm 1 mps 582 mmHg 79%
    05:00 -3°C° 0 mm 1 mps 583 mmHg 77%
    06:00 -2°C° 0 mm 1 mps 583 mmHg 74%
    07:00 -2°C° 0 mm 1 mps 584 mmHg 72%
    08:00 +1°C° 0 mm 1 mps 585 mmHg 65%
    09:00 +4°C° 0 mm 1 mps 586 mmHg 59%
    10:00 +6°C° 0 mm 1 mps 588 mmHg 52%
    11:00 +7°C° 0 mm 1 mps 588 mmHg 51%
    12:00 +8°C° 0 mm 1 mps 588 mmHg 50%
    13:00 +8°C° 0 mm 1 mps 588 mmHg 48%
    14:00 +8°C° 0 mm 1 mps 588 mmHg 51%
    15:00 +8°C° 0 mm 1 mps 587 mmHg 53%
    16:00 +7°C° 0 mm 1 mps 587 mmHg 56%
    17:00 +5°C° 0 mm 1 mps 586 mmHg 66%
    18:00 +2°C° 0 mm 1 mps 584 mmHg 76%
    19:00 -1°C° 0 mm 1 mps 583 mmHg 86%
    20:00 -1°C° 0 mm 1 mps 583 mmHg 87%
    21:00 -1°C° 0 mm 1 mps 583 mmHg 88%
    22:00 -1°C° 0 mm 1 mps 584 mmHg 90%
    23:00 -2°C° 0 mm 1 mps 584 mmHg 91%
    Show more